This is the latest recevied weather packets stored in our database for station/object PE1BMM-13. If no packets are shown the sender has not sent any weather packets the latest 10 day(s).
| Time | Temp. | Humidity | Pressure | Rain* | Wind** | Luminosity | Snow |
|---|---|---|---|---|---|---|---|
| 1777557276 | 18.89° C | 33% | 1027.3 hPa | 0 mm | - | - | - |
| 1777556970 | 18.33° C | 33% | 1027.4 hPa | 0 mm | - | - | - |
| 1777556670 | 18.33° C | 31% | 1027.3 hPa | 0 mm | - | - | - |
| 1777556370 | 18.33° C | 31% | 1027.5 hPa | 0 mm | - | - | - |
| 1777556071 | 18.33° C | 32% | 1027.7 hPa | 0 mm | - | - | - |
| 1777555771 | 18.33° C | 35% | 1027.5 hPa | 0 mm | - | - | - |
| 1777555469 | 18.33° C | 34% | 1027.7 hPa | 0 mm | - | - | - |
| 1777555169 | 18.33° C | 33% | 1027.7 hPa | 0 mm | - | - | - |
| 1777554870 | 17.78° C | 32% | 1027.7 hPa | 0 mm | - | - | - |
| 1777554571 | 17.78° C | 32% | 1027.7 hPa | 0 mm | - | - | - |
| 1777554270 | 17.78° C | 31% | 1027.8 hPa | 0 mm | - | - | - |
| 1777553970 | 17.78° C | 32% | 1028 hPa | 0 mm | - | - | - |
| 1777553670 | 17.78° C | 34% | 1028 hPa | 0 mm | - | - | - |
| 1777553370 | 17.78° C | 33% | 1028 hPa | 0 mm | - | - | - |
| 1777553070 | 17.78° C | 34% | 1028 hPa | 0 mm | - | - | - |
| 1777552770 | 17.22° C | 33% | 1028 hPa | 0 mm | - | - | - |
| 1777552469 | 17.22° C | 34% | 1028 hPa | 0 mm | - | - | - |
| 1777552170 | 17.22° C | 34% | 1028 hPa | 0 mm | - | - | - |
| 1777551870 | 17.22° C | 34% | 1028.1 hPa | 0 mm | - | - | - |
| 1777551567 | 17.22° C | 35% | 1028.1 hPa | 0 mm | - | - | - |
| 1777551267 | 17.22° C | 35% | 1028 hPa | 0 mm | - | - | - |
| 1777550969 | 16.67° C | 36% | 1028.2 hPa | 0 mm | - | - | - |
| 1777550666 | 16.67° C | 33% | 1028.2 hPa | 0 mm | - | - | - |
| 1777550365 | 16.67° C | 34% | 1028.3 hPa | 0 mm | - | - | - |
| 1777550064 | 16.67° C | 34% | 1028.1 hPa | 0 mm | - | - | - |
* Rain latest hour (hover to see other rain measurements)
** Current wind speed in m/s (hover to see current wind gust speed)